Погода в Красненском

Россия / Калужская область     53°33′16″N   35°10′19″E
темп.,
°C
ветер,
м/с
пор.,
м/с
влажн.,
%
обл.,
%
осадки,
мм/ч
давл.,
гПа
погр.,
м
15 апреля, чт
чт1500:00+11всв2282100 0.6 101428
03:00+9вюв2684100 0.6 1014116
06:00+10в2681100 0.2 1014128
09:00+11всв31175100 0.2 1013464
12:00+15юв4659100 0.0 10121093
15:00+14вюв5869100 1.4 10121043
18:00+11в3790100 2.0 1013232
21:00+10в248794 2.4 101368
16 апреля, пт
пт1600:00+10всв389199 0.1 1013214
03:00+7в25915 0.1 101492
06:00+6в299459 0.0 1015209
09:00+10вюв357695 0.0 1016493
12:00+12в4766100 0.0 10161092
15:00+15в484871 0.2 10152204
18:00+14юв37528 0.1 1015329
21:00+8ю22775 0.1 101819
17 апреля, сб
сб1700:00+7всв228199 0.0 101926
03:00+7всв2585100 0.1 101992
06:00+6всв2392100 0.0 101966
09:00+10всв2486100 0.1 1019455
12:00+10св3689100 0.7 1019570
15:00+10св31092100 4.3 1018783
18:00+9ююз2593100 1.4 1017252
21:00+9всв41390100 5.8 1018762
18 апреля, вс
вс1800:00+9в3992100 0.1 1018627
03:00+8всв1297100 0.5 101995
06:00+7св41088100 0.9 1019681
09:00+7св41182100 0.9 1019667
12:00+7св51081100 0.0 1020758
15:00+7св4108799 0.1 1021682
18:00+8всв5108491 0.2 1022748
21:00+6св389341 0.2 1023386
19 апреля, пн
пн1900:00+5св26956 0.0 1023201
03:00+3св269816 0.0 1024131
06:00+3св29975 0.0 1024219
09:00+8всв5107269 0.0 1024879
12:00+10всв586685 0.0 10241153
15:00+11всв4762100 0.1 10231336
18:00+9всв597199 0.1 1024988
21:00+8всв41080100 0.2 1024673